Погода в Покровском

Россия / Ставропольский край     45°58′39″N   41°35′25″E
темп.,
°C
ветер,
м/с
пор.,
м/с
влажн.,
%
обл.,
%
осадки,
мм/ч
давл.,
гПа
погр.,
м
21 июня, пн
пн2100:00+23вюв715425 0.0 1012460
03:00+20в6144612 0.0 1012358
06:00+19в414630 0.0 1012375
09:00+26вюв813490 0.0 1012875
12:00+31вюв813320 0.0 10111579
15:00+34в813300 0.0 10091980
18:00+29в91635100 0.0 1010560
21:00+27вюв8172799 0.0 1012557
22 июня, вт
вт2200:00+22в5143591 0.0 1012347
03:00+19в4124144 0.0 1012243
06:00+19всв513575 0.0 1012284
09:00+27в815440 0.0 10111098
12:00+32вюв813315 0.0 10101777
15:00+35юв6122718 0.3 10102266
18:00+31ююз24472 0.0 1010173
21:00+27в4747100 0.1 1011103
23 июня, ср
ср2300:00+24вюв4739100 0.1 1012124
03:00+22в22412 0.1 101211
06:00+22ссв22480 0.0 101232
09:00+28св44410 0.0 1012681
12:00+32всв24360 0.0 10111623
15:00+33юв33365 0.0 10101762
18:00+30ююв474952 0.0 1011322
21:00+25юв225872 0.0 101211
24 июня, чт
чт2400:00+23вюв412494 0.0 1013235
03:00+20вюв4104429 0.0 1013156
06:00+20в3655100 0.0 1014103
09:00+26в3440100 0.0 1014429
12:00+30в5736100 0.0 10141383
15:00+33в2729100 0.1 10121915
18:00+30зсз34513 0.3 1012194
21:00+23зсз22560 0.3 101211
25 июня, пт
пт2500:00+21юз11630 0.0 101211
03:00+20юз11660 0.0 101211
06:00+21ююз127213 0.0 101358
09:00+27сз1156100 0.0 1013470
12:00+31юв1335100 0.0 10121482
15:00+33св232679 0.0 10111930
18:00+28з3450100 0.9 101152
21:00+22зсз4972100 3.1 1011123